This is the latest recevied weather packets stored in our database for station/object KG4IFE-13. If no packets are shown the sender has not sent any weather packets the latest 10 day(s).
| Time | Temp. | Humidity | Pressure | Rain* | Wind** | Luminosity | Snow |
|---|---|---|---|---|---|---|---|
| 1777645314 | 12.22° C | 61% | 1016 hPa | - | - | - | - |
| 1777644440 | 12.22° C | 61% | 1016 hPa | - | - | - | - |
| 1777643808 | 12.22° C | 61% | 1016.2 hPa | - | - | - | - |
| 1777643206 | 12.22° C | 62% | 1016.4 hPa | - | - | - | - |
| 1777642305 | 12.22° C | 63% | 1016.3 hPa | - | - | - | - |
| 1777642002 | 11.67° C | 63% | 1016.3 hPa | - | - | - | - |
| 1777641713 | 11.67° C | 63% | 1016.3 hPa | - | - | - | - |
| 1777640538 | 11.11° C | 66% | 1016.4 hPa | - | - | - | - |
| 1777639313 | 10.56° C | 71% | 1016.4 hPa | - | - | - | - |
| 1777638993 | 10° C | 73% | 1016.3 hPa | - | - | - | - |
| 1777636584 | 7.78° C | 79% | 1016.3 hPa | - | - | - | - |
| 1777636297 | 7.78° C | 79% | 1016.3 hPa | - | - | - | - |
| 1777635982 | 6.67° C | 80% | 1016.2 hPa | - | - | - | - |
| 1777631769 | 5.56° C | 80% | 1015.6 hPa | - | - | - | - |
| 1777629082 | 6.67° C | 77% | 1015.2 hPa | - | - | - | - |
| 1777626354 | 7.78° C | 75% | 1015.4 hPa | - | - | - | - |
| 1777626048 | 7.78° C | 74% | 1015.4 hPa | - | - | - | - |
| 1777622739 | 8.89° C | 71% | 1015.2 hPa | - | - | - | - |
| 1777619728 | 8.89° C | 68% | 1015.1 hPa | - | - | - | - |
| 1777619126 | 8.89° C | 67% | 1015 hPa | - | - | - | - |
| 1777618223 | 9.44° C | 66% | 1015.3 hPa | - | - | - | - |
| 1777617019 | 9.44° C | 65% | 1015.4 hPa | - | - | - | - |
| 1777616418 | 9.44° C | 64% | 1015.2 hPa | - | - | - | - |
| 1777615213 | 9.44° C | 64% | 1015.2 hPa | - | - | - | - |
| 1777614310 | 9.44° C | 64% | 1015.2 hPa | - | - | - | - |
* Rain since midnight (hover to see other rain measurements)
** Current wind speed in m/s (hover to see current wind gust speed)